STARLINK-32725 (62505 NORAD) Tracking and Keplerian Element Data

This shows tracking and keplerian element data for the satellite.

Feedback or suggestion? Click here.




ElementValue
Catalog62505
NameSTARLINK-32725
Epoch Orbit558
Epoch Day34.83335648
Epoch Year2025
RAAN25.2049
Inclination43.0007
Eccentricity0.0001075
Argument of Perigee274.7026
Mean Anonmoly266.3039
Mean Motion15.40659581
Decay Rate0.00060116
L11 62505U 25003U 25034.83335648 .00060116 00000+0 14370-2 0 9992
L22 62505 43.0007 25.2049 0001075 274.7026 266.3039 15.40659581 5588



Live tracking and technical data element details for STARLINK-32725 (NORAD 62505). STARLINK-32725 can be tracked NOW for your location showing map with azimuth and elevation plus other details from your city location.







IsCatalogInMostPopularTable: catalog: 62505, numindb: 20
Update: records affected: 1



GetName: 62505 STARLINK-32725

Hit Count: updated at: Sun, 18 May 2025 23:20:43 GMT